This is the latest recevied weather packets stored in our database for station/object KJ5JYX. If no packets are shown the sender has not sent any weather packets the latest 10 day(s).
| Time | Temp. | Humidity | Pressure | Rain* | Wind** | Luminosity | Snow |
|---|---|---|---|---|---|---|---|
| 1777630115 | 15° C | 99% | 1014.6 hPa | 1.27 mm | - | 0 W/m² | - |
| 1777629813 | 15° C | 99% | 1014.7 hPa | 0 mm | - | 0 W/m² | - |
| 1777629509 | 15° C | 99% | 1014.9 hPa | 0 mm | - | 0 W/m² | - |
| 1777629205 | 15° C | 99% | 1014.8 hPa | 0 mm | - | 0 W/m² | - |
| 1777628902 | 15° C | 99% | 1014.3 hPa | 0 mm | - | 0 W/m² | - |
| 1777628599 | 15° C | 99% | 1014.3 hPa | 1.78 mm | - | 0 W/m² | - |
| 1777628294 | 15° C | 99% | 1013.7 hPa | 3.05 mm | - | 0 W/m² | - |
| 1777627991 | 15° C | 99% | 1013.4 hPa | 1.27 mm | - | 0 W/m² | - |
| 1777627690 | 15° C | 99% | 1013.5 hPa | 1.27 mm | - | 0 W/m² | - |
| 1777627389 | 15° C | 99% | 1013.5 hPa | 0 mm | - | 0 W/m² | - |
| 1777627086 | 15° C | 99% | 1013.9 hPa | 0 mm | - | 0 W/m² | - |
| 1777626782 | 15° C | 99% | 1014.4 hPa | 1.78 mm | - | 0 W/m² | - |
| 1777626478 | 15° C | 99% | 1014.7 hPa | 1.78 mm | - | 0 W/m² | - |
| 1777626173 | 15° C | 99% | 1014.7 hPa | 0 mm | - | 0 W/m² | - |
| 1777625872 | 15° C | 99% | 1014.7 hPa | 0 mm | - | 0 W/m² | - |
| 1777625568 | 15° C | 99% | 1014.5 hPa | 0 mm | - | 0 W/m² | - |
| 1777625264 | 15° C | 99% | 1014.9 hPa | 0 mm | - | 0 W/m² | - |
| 1777624960 | 15° C | 99% | 1015.2 hPa | 1.78 mm | - | 0 W/m² | - |
| 1777624657 | 15° C | 99% | 1015 hPa | 1.78 mm | - | 0 W/m² | - |
| 1777624352 | 15° C | 99% | 1014.8 hPa | 0 mm | - | 0 W/m² | - |
| 1777624049 | 15° C | 99% | 1014.4 hPa | 1.27 mm | - | 0 W/m² | - |
| 1777623746 | 15° C | 99% | 1014.4 hPa | 3.05 mm | - | 0 W/m² | - |
| 1777623443 | 15° C | 99% | 1014.7 hPa | 3.05 mm | - | 0 W/m² | - |
| 1777623141 | 15° C | 99% | 1014.8 hPa | 3.05 mm | - | 0 W/m² | - |
| 1777622838 | 15° C | 99% | 1015.3 hPa | 3.05 mm | - | 0 W/m² | - |
* Rain latest hour (hover to see other rain measurements)
** Current wind speed in m/s (hover to see current wind gust speed)